This is the latest recevied weather packets stored in our database for station/object DB0SMU-12. If no packets are shown the sender has not sent any weather packets the latest 10 day(s).
| Time | Temp. | Humidity | Pressure | Rain* | Wind** | Luminosity | Snow |
|---|---|---|---|---|---|---|---|
| 1778167753 | 13.89° C | 60% | 1015.9 hPa | 0.25 mm | - | - | - |
| 1778167649 | 13.89° C | 61% | 1015.8 hPa | 0.25 mm | - | - | - |
| 1778167468 | 13.89° C | 60% | 1015.9 hPa | 0.25 mm | - | - | - |
| 1778167287 | 14.44° C | 58% | 1015.8 hPa | 0.25 mm | - | - | - |
| 1778167106 | 14.44° C | 56% | 1015.6 hPa | 0 mm | - | - | - |
| 1778166925 | 14.44° C | 54% | 1015.7 hPa | 0 mm | - | - | - |
| 1778166744 | 14.44° C | 55% | 1015.7 hPa | 0 mm | - | - | - |
| 1778166563 | 13.89° C | 55% | 1015.7 hPa | 0 mm | - | - | - |
| 1778166382 | 14.44° C | 55% | 1015.6 hPa | 0 mm | - | - | - |
| 1778166202 | 14.44° C | 55% | 1015.7 hPa | 0 mm | - | - | - |
| 1778166021 | 15° C | 57% | 1015.7 hPa | 0 mm | - | - | - |
| 1778165840 | 15° C | 54% | 1015.6 hPa | 0 mm | - | - | - |
| 1778165659 | 14.44° C | 55% | 1015.6 hPa | 0 mm | - | - | - |
| 1778165478 | 15° C | 55% | 1015.7 hPa | 0 mm | - | - | - |
| 1778165297 | 14.44° C | 55% | 1015.5 hPa | 0 mm | - | - | - |
| 1778165116 | 14.44° C | 55% | 1015.6 hPa | 0 mm | - | - | - |
| 1778164936 | 14.44° C | 56% | 1015.6 hPa | 0 mm | - | - | - |
| 1778164755 | 14.44° C | 56% | 1015.5 hPa | 0 mm | - | - | - |
| 1778164574 | 14.44° C | 56% | 1015.6 hPa | 0 mm | - | - | - |
| 1778164393 | 14.44° C | 56% | 1015.7 hPa | 0 mm | - | - | - |
| 1778164212 | 14.44° C | 55% | 1015.7 hPa | 0 mm | - | - | - |
| 1778164031 | 14.44° C | 56% | 1015.7 hPa | 0 mm | - | - | - |
| 1778163850 | 14.44° C | 56% | 1015.6 hPa | 0 mm | - | - | - |
| 1778163669 | 14.44° C | 55% | 1015.8 hPa | 0 mm | - | - | - |
| 1778163489 | 14.44° C | 55% | 1015.8 hPa | 0 mm | - | - | - |
* Rain latest hour (hover to see other rain measurements)
** Current wind speed in m/s (hover to see current wind gust speed)